Wheaton, MN

10:43 AM CST on February 27, 2017 (GMT -0600)
Wheaton Municipal

Weather History for KETH - March, 2013

Change the Weather History Date:

Friday, March 15, 2013

  Actual Average Record
Temperature  
Mean Temperature 22 °F -  
Max Temperature 28 °F 39 °F 71 °F (2015)
Min Temperature 17 °F 18 °F -11 °F (1997)
Degree Days  
Heating Degree Days 42    
Moisture  
Dew Point 23 °F    
Average Humidity 92    
Maximum Humidity 100    
Minimum Humidity 86    
Precipitation  
Precipitation 0.02 in - - ()
Sea Level Pressure  
Sea Level Pressure 29.98 in    
Wind  
Wind Speed 12 mph (NNW)    
Max Wind Speed 21 mph    
Max Gust Speed 28 mph    
Visibility 6 miles    
Events Snow    
Averages and records for this station are not official NWS values.
T = Trace of Precipitation, MM = Missing Value Source: NWS Daily Summary

Daily Weather History Graph

Daily Weather History Graph

Search for Another Location

Airport or City:

Trip Planner

Search our weather history database for the weather conditions in past years. The results will help you decide how hot, cold, wet, or windy it might be!

Date:

Astronomy

Mar. 15, 2013 Rise Set
Actual Time 7:38 AM CDT 7:32 PM CDT
Civil Twilight 7:08 AM CDT 8:02 PM CDT
Nautical Twilight 6:34 AM CDT 8:36 PM CDT
Astronomical Twilight 5:58 AM CDT 9:12 PM CDT
Moon 9:15 AM CDT (3/15) No Moon Set
Length of Visible Light 12h 53m
Length of Day
11h 54m
Waxing Crescent, 15% of the Moon is Illuminated
Mar 15
Waxing Crescent
Mar 19
First Quarter
Mar 27
Full
Apr 2
Last Quarter
Apr 10
New

Hourly Weather History & Observations

Time (CDT) Temp. Windchill Dew Point Humidity Pressure Visibility Wind Dir Wind Speed Gust Speed Precip Events Conditions
12:14 AM 24.8 °F 12.9 °F 23.0 °F 93% 30.07 in 7.0 mi NNW 13.8 mph - N/A   Scattered Clouds
12:34 AM 24.8 °F 12.4 °F 21.2 °F 86% 30.06 in 10.0 mi NNW 15.0 mph - N/A   Overcast
12:55 AM 24.8 °F 12.4 °F 21.2 °F 86% 30.06 in 10.0 mi NNW 15.0 mph 20.7 mph N/A   Overcast
1:15 AM 24.8 °F 10.3 °F 21.2 °F 86% 30.06 in 10.0 mi NNW 20.7 mph 27.6 mph N/A   Overcast
1:34 AM 24.8 °F 11.9 °F 21.2 °F 86% 30.07 in 10.0 mi NW 16.1 mph - N/A   Overcast
1:54 AM 23.0 °F 11.7 °F 19.4 °F 86% 30.07 in 10.0 mi NW 11.5 mph 20.7 mph N/A   Overcast
2:15 AM 23.0 °F 10.1 °F 21.2 °F 93% 30.06 in 10.0 mi NNW 15.0 mph - N/A   Overcast
2:35 AM 23.0 °F 11.7 °F 19.4 °F 86% 30.06 in 10.0 mi NW 11.5 mph - N/A   Overcast
2:54 AM 23.0 °F 12.4 °F 21.2 °F 93% 30.06 in 7.0 mi NNW 10.4 mph - N/A Snow Light Snow
3:15 AM 23.0 °F 13.1 °F 21.2 °F 93% 30.05 in 7.0 mi NNW 9.2 mph - N/A Snow Light Snow
3:34 AM 24.8 °F 13.4 °F 21.2 °F 86% 30.03 in 5.0 mi North 12.7 mph - N/A Snow Light Snow
4:14 AM 24.8 °F 14.0 °F 21.2 °F 86% 30.01 in 7.0 mi North 11.5 mph - N/A Snow Light Snow
4:35 AM 24.8 °F 14.6 °F 21.2 °F 86% 30.00 in 7.0 mi North 10.4 mph - N/A Snow Light Snow
4:54 AM 23.0 °F 13.1 °F 21.2 °F 93% 30.02 in 7.0 mi NW 9.2 mph - N/A Snow Light Snow
5:15 AM 23.0 °F 12.4 °F 21.2 °F 93% 30.00 in 7.0 mi North 10.4 mph - N/A Snow Light Snow
5:35 AM 23.0 °F 12.4 °F 21.2 °F 93% 29.99 in 5.0 mi North 10.4 mph - N/A Snow Light Snow
5:55 AM 23.0 °F 11.1 °F 21.2 °F 93% 29.99 in 7.0 mi North 12.7 mph 18.4 mph N/A Snow Light Snow
6:15 AM 24.8 °F 14.6 °F 21.2 °F 86% 30.00 in 7.0 mi North 10.4 mph - N/A Snow Light Snow
6:34 AM 24.8 °F 14.0 °F 23.0 °F 93% 30.00 in 7.0 mi North 11.5 mph - N/A   Overcast
6:55 AM 24.8 °F 15.3 °F 23.0 °F 93% 30.00 in 7.0 mi North 9.2 mph - N/A   Overcast
7:15 AM 24.8 °F 14.6 °F 23.0 °F 93% 29.99 in 7.0 mi North 10.4 mph - N/A   Overcast
7:35 AM 24.8 °F 15.3 °F 23.0 °F 93% 30.00 in 7.0 mi North 9.2 mph - N/A   Overcast
7:55 AM 24.8 °F 14.0 °F 23.0 °F 93% 29.99 in 10.0 mi North 11.5 mph - N/A   Overcast
8:26 AM 24.8 °F 14.0 °F 23.0 °F 93% 29.98 in 10.0 mi North 11.5 mph - N/A   Overcast
8:35 AM 24.8 °F 13.4 °F 21.2 °F 86% 29.98 in 10.0 mi North 12.7 mph - N/A   Overcast
8:54 AM 24.8 °F 14.0 °F 21.2 °F 86% 29.99 in 10.0 mi North 11.5 mph - N/A   Overcast
9:15 AM 23.0 °F 12.4 °F 21.2 °F 93% 30.00 in 10.0 mi NNW 10.4 mph - N/A   Overcast
9:34 AM 23.0 °F 12.4 °F 21.2 °F 93% 30.01 in 10.0 mi NNW 10.4 mph - N/A   Overcast
9:54 AM 24.8 °F 17.9 °F 21.2 °F 86% 29.98 in 7.0 mi North 5.8 mph - N/A   Overcast
10:14 AM 24.8 °F 16.9 °F 23.0 °F 93% 30.00 in 5.0 mi NNW 6.9 mph - N/A Snow Light Snow
10:35 AM 24.8 °F 16.1 °F 23.0 °F 93% 29.98 in 10.0 mi NNW 8.1 mph - N/A   Overcast
10:54 AM 24.8 °F 14.6 °F 23.0 °F 93% 29.98 in 10.0 mi North 10.4 mph - N/A   Overcast
11:15 AM 24.8 °F 14.6 °F 23.0 °F 93% 29.99 in 10.0 mi NNW 10.4 mph - N/A   Mostly Cloudy
11:34 AM 24.8 °F 14.6 °F 23.0 °F 93% 29.98 in 10.0 mi North 10.4 mph - N/A   Mostly Cloudy
11:54 AM 26.6 °F 16.8 °F 24.8 °F 93% 29.97 in 10.0 mi North 10.4 mph - N/A   Mostly Cloudy
12:14 PM 26.6 °F 16.8 °F 24.8 °F 93% 29.97 in 10.0 mi North 10.4 mph - N/A   Mostly Cloudy
12:34 PM 26.6 °F 16.2 °F 24.8 °F 93% 29.96 in 10.0 mi North 11.5 mph - N/A   Mostly Cloudy
12:54 PM 28.4 °F 19.7 °F 24.8 °F 86% 29.95 in 10.0 mi NNE 9.2 mph - N/A   Mostly Cloudy
1:15 PM 28.4 °F 19.1 °F 24.8 °F 86% 29.95 in 10.0 mi NNE 10.4 mph - N/A   Mostly Cloudy
1:35 PM 28.4 °F 19.1 °F 24.8 °F 86% 29.93 in 10.0 mi NNE 10.4 mph - N/A Snow Light Snow
1:55 PM 28.4 °F 19.7 °F 26.6 °F 93% 29.93 in 5.0 mi NE 9.2 mph - N/A Snow Light Snow
2:14 PM 28.4 °F 19.7 °F 26.6 °F 93% 29.92 in 10.0 mi NE 9.2 mph - N/A   Overcast
2:34 PM 28.4 °F 20.4 °F 26.6 °F 93% 29.90 in 4.0 mi ENE 8.1 mph - N/A Snow Light Snow
2:54 PM 28.4 °F 24.6 °F 26.6 °F 93% 29.91 in 4.0 mi ENE 3.5 mph - N/A   Overcast
3:14 PM 28.4 °F 23.3 °F 26.6 °F 93% 29.90 in 2.5 mi East 4.6 mph - 0.02 in Snow Light Snow
3:35 PM 28.4 °F 21.2 °F 26.6 °F 93% 29.91 in 5.0 mi North 6.9 mph - 0.02 in Snow Light Snow
3:54 PM 28.4 °F 20.4 °F 26.6 °F 93% 29.90 in 1.5 mi North 8.1 mph - 0.02 in Snow Light Snow
4:14 PM 28.4 °F 20.4 °F 26.6 °F 93% 29.87 in 4.0 mi NNE 8.1 mph - N/A Snow Light Snow
4:35 PM 28.4 °F 19.1 °F 26.6 °F 93% 29.92 in 3.0 mi NW 10.4 mph - N/A Snow Light Snow
4:54 PM 26.6 °F 17.5 °F 26.6 °F 100% 29.90 in 2.0 mi NNW 9.2 mph - N/A Snow Light Snow
5:14 PM 26.6 °F 15.2 °F 26.6 °F 100% 29.92 in 1.5 mi NNW 13.8 mph 18.4 mph N/A Snow Light Snow
5:35 PM 26.6 °F 16.2 °F 24.8 °F 93% 29.92 in 1.2 mi NW 11.5 mph - N/A Snow Light Snow
5:55 PM 24.8 °F 13.4 °F 24.8 °F 100% 29.91 in 3.0 mi NNW 12.7 mph - N/A Snow Light Snow
6:14 PM 24.8 °F 15.3 °F 23.0 °F 93% 29.90 in 7.0 mi NNW 9.2 mph - N/A Snow Light Snow
6:34 PM 24.8 °F 15.3 °F 24.8 °F 100% 29.91 in 10.0 mi NNW 9.2 mph - N/A   Overcast
6:54 PM 24.8 °F 15.3 °F 23.0 °F 93% 29.91 in 10.0 mi NNW 9.2 mph - N/A   Overcast
7:15 PM 24.8 °F 12.4 °F 23.0 °F 93% 29.92 in 4.0 mi NNW 15.0 mph - N/A   Overcast
7:34 PM 24.8 °F 12.9 °F 23.0 °F 93% 29.93 in 3.0 mi NNW 13.8 mph - N/A Snow Light Snow
7:54 PM 24.8 °F 14.6 °F 23.0 °F 93% 29.94 in 2.5 mi NNW 10.4 mph - N/A   Overcast
8:15 PM 24.8 °F 16.1 °F 23.0 °F 93% 29.93 in 2.5 mi NNW 8.1 mph - N/A   Overcast
8:35 PM 24.8 °F 14.0 °F 23.0 °F 93% 29.95 in 2.5 mi NW 11.5 mph - N/A   Overcast
8:55 PM 21.2 °F 7.3 °F 21.2 °F 100% 29.97 in 3.0 mi NW 16.1 mph - N/A   Overcast
9:14 PM 21.2 °F 8.3 °F 19.4 °F 93% 29.97 in 3.0 mi NW 13.8 mph 20.7 mph N/A   Overcast
9:34 PM 21.2 °F 7.8 °F 19.4 °F 93% 29.98 in 3.0 mi NW 15.0 mph - N/A   Overcast
9:55 PM 19.4 °F 6.6 °F 19.4 °F 100% 29.98 in 2.5 mi NW 12.7 mph - N/A Snow Light Snow
10:15 PM 19.4 °F 5.0 °F 19.4 °F 100% 29.98 in 2.5 mi NNW 16.1 mph 21.9 mph N/A   Overcast
10:35 PM 19.4 °F 6.0 °F 19.4 °F 100% 30.00 in 2.5 mi NNW 13.8 mph 21.9 mph N/A Snow Light Snow
10:54 PM 19.4 °F 6.0 °F 17.6 °F 93% 30.01 in 2.5 mi NW 13.8 mph 23.0 mph N/A   Overcast
11:14 PM 17.6 °F 2.7 °F 17.6 °F 100% 30.01 in 2.5 mi NNW 16.1 mph - N/A   Overcast
11:34 PM 17.6 °F 4.3 °F 17.6 °F 100% 30.03 in 3.0 mi NNW 12.7 mph - N/A   Overcast
11:55 PM 17.6 °F 2.7 °F 15.8 °F 93% 30.03 in 3.0 mi NW 16.1 mph - N/A   Overcast